CW9181 Weather Reports


time (UTC)temp
C
wind
direction
speed
KPH
gust
KPH
rain 1hr
cm
rain 24hr
cm
rain mn
cm
humidity
%
barometer
mb
20260901214019 22 16 3.2 17.7 0.00 0.00 0.00 49 1014.9
20260901213024 23 144 8.0 17.7 0.00 0.00 0.00 48 1015.0
20260901212022 23 181 8.0 19.3 0.00 0.00 0.00 48 1015.0
20260901211022 22 294 9.7 16.1 0.00 0.00 0.00 48 1015.1
20260901210022 23 229 6.4 17.7 0.00 0.00 0.00 48 1015.4
20260901205014 23 194 4.8 8.0 0.00 0.00 0.00 51 1015.4
20260901204014 22 218 6.4 19.3 0.00 0.00 0.00 54 1015.5
20260901203020 22 235 8.0 17.7 0.00 0.00 0.00 52 1015.6
20260901202040 22 243 6.4 22.5 0.00 0.00 0.00 53 1015.8
20260901201020 22 209 4.8 17.7 0.00 0.00 0.00 52 1015.9
20260901200020 22 182 9.7 19.3 0.00 0.00 0.00 51 1015.8
20260901195017 22 216 8.0 22.5 0.00 0.00 0.00 52 1015.8
20260901194016 22 175 8.0 19.3 0.00 0.00 0.00 52 1015.9
20260901193041 22 122 4.8 16.1 0.00 0.00 0.00 53 1016.1
20260901192022 22 228 8.0 24.1 0.00 0.00 0.00 54 1016.1
20260901191019 21 188 8.0 16.1 0.00 0.00 0.00 54 1016.2
20260901190041 21 152 8.0 17.7 0.00 0.00 0.00 54 1016.4
20260901185016 21 240 8.0 20.9 0.00 0.00 0.00 59 1016.5
20260901184019 20 177 9.7 17.7 0.00 0.00 0.00 60 1016.5
20260901183021 20 218 4.8 12.9 0.00 0.00 0.00 61 1016.5
20260901182023 20 203 6.4 16.1 0.00 0.00 0.00 63 1016.5
20260901181022 20 226 4.8 16.1 0.00 0.00 0.00 62 1016.5
20260901180041 20 150 11.3 19.3 0.00 0.00 0.00 60 1016.3
20260901175020 21 169 8.0 19.3 0.00 0.00 0.00 60 1016.3
20260901174038 20 206 4.8 16.1 0.00 0.00 0.00 63 1016.4
20260901173019 19 119 6.4 16.1 0.00 0.00 0.00 64 1016.3
20260901172025 19 172 9.7 20.9 0.00 0.00 0.00 64 1016.5
20260901171027 19 192 8.0 17.7 0.00 0.00 0.00 64 1016.3
20260901170046 18 199 6.4 14.5 0.00 0.00 0.00 66 1016.1
20260901165041 18 168 12.9 19.3 0.00 0.00 0.00 63 1016.1
20260901164018 18 199 9.7 16.1 0.00 0.00 0.00 65 1016.0
20260901163039 18 193 11.3 20.9 0.00 0.00 0.00 67 1016.1
20260901162033 18 155 12.9 20.9 0.00 0.00 0.00 66 1016.0
20260901161014 18 202 4.8 19.3 0.00 0.00 0.00 68 1015.9
20260901160014 17 128 4.8 20.9 0.00 0.00 0.00 70 1015.8
20260901155010 17 132 11.3 19.3 0.00 0.00 0.00 71 1015.8
20260901154015 17 159 6.4 22.5 0.00 0.00 0.00 72 1015.6
20260901153019 17 201 6.4 16.1 0.00 0.00 0.00 72 1015.4
20260901152020 16 188 8.0 14.5 0.00 0.00 0.00 75 1015.2
20260901151016 16 140 8.0 16.1 0.00 0.00 0.00 76 1015.2
20260901150017 16 165 6.4 17.7 0.00 0.00 0.00 76 1015.1
20260901145017 16 171 6.4 14.5 0.00 0.00 0.00 76 1015.1
20260901144017 15 141 8.0 17.7 0.00 0.00 0.00 77 1015.1
20260901143018 15 99 8.0 17.7 0.00 0.00 0.00 78 1014.8
20260901142041 15 147 6.4 17.7 0.00 0.00 0.00 78 1014.5
20260901141017 15 176 6.4 14.5 0.00 0.00 0.00 77 1014.4
20260901140035 15 115 11.3 19.3 0.00 0.00 0.00 77 1014.2
20260901135019 15 137 8.0 16.1 0.00 0.00 0.00 78 1014.2
20260901134015 15 150 8.0 24.1 0.00 0.00 0.00 78 1014.0
20260901133037 15 105 4.8 16.1 0.00 0.00 0.00 79 1014.0
20260901132017 15 157 8.0 17.7 0.00 0.00 0.00 79 1013.9
20260901131031 15 134 8.0 16.1 0.00 0.00 0.00 79 1013.6
20260901130016 15 174 11.3 19.3 0.00 0.00 0.00 79 1013.6
20260901125020 15 146 6.4 17.7 0.00 0.00 0.00 79 1013.6
20260901124020 15 143 8.0 16.1 0.00 0.00 0.00 79 1013.5
20260901123019 15 116 8.0 16.1 0.00 0.00 0.00 79 1013.5
20260901122048 15 151 6.4 16.1 0.00 0.00 0.00 79 1013.4
20260901121024 15 107 8.0 17.7 0.00 0.00 0.00 79 1013.5
20260901120023 15 137 8.0 14.5 0.00 0.00 0.00 78 1013.5
20260901115024 15 164 6.4 17.7 0.00 0.00 0.00 79 1013.4
20260901114026 15 139 8.0 16.1 0.00 0.00 0.00 79 1013.3
20260901113013 15 138 8.0 14.5 0.00 0.00 0.00 79 1013.3
20260901112014 15 155 8.0 12.9 0.00 0.00 0.00 79 1013.1
20260901111014 15 120 6.4 12.9 0.00 0.00 0.00 79 1013.1
20260901110015 15 108 8.0 11.3 0.00 0.00 0.00 79 1013.2
20260901105037 15 127 8.0 14.5 0.00 0.00 0.00 78 1013.2
20260901104012 15 123 6.4 12.9 0.00 0.00 0.00 78 1013.1
20260901103013 15 139 8.0 12.9 0.00 0.00 0.00 78 1013.1
20260901102035 15 124 9.7 17.7 0.00 0.00 0.00 78 1012.9
20260901101011 15 132 11.3 19.3 0.00 0.00 0.00 79 1013.1
20260901100014 15 172 8.0 20.9 0.00 0.00 0.00 79 1013.2
20260901095014 15 139 8.0 16.1 0.00 0.00 0.00 79 1013.1
20260901094010 15 157 8.0 16.1 0.00 0.00 0.00 79 1013.2
20260901093013 15 169 11.3 14.5 0.00 0.00 0.00 79 1013.1
20260901092016 15 119 6.4 17.7 0.00 0.00 0.00 78 1013.1
20260901091033 15 103 9.7 19.3 0.00 0.00 0.00 78 1013.1
20260901090013 15 119 9.7 17.7 0.00 0.00 0.00 79 1013.3
20260901085016 15 95 12.9 19.3 0.00 0.00 0.00 79 1013.2
20260901084015 15 127 9.7 17.7 0.00 0.00 0.00 79 1013.2
20260901083019 15 155 9.7 16.1 0.00 0.00 0.00 79 1013.3
20260901082021 15 156 11.3 19.3 0.00 0.00 0.00 79 1013.2
20260901081027 15 143 9.7 17.7 0.00 0.00 0.00 79 1013.2
20260901080022 15 133 11.3 20.9 0.00 0.00 0.00 79 1013.1
20260901075022 15 113 11.3 17.7 0.00 0.00 0.00 79 1013.0
20260901074024 15 99 8.0 19.3 0.00 0.00 0.00 79 1013.1
20260901073019 15 139 12.9 22.5 0.00 0.00 0.00 79 1013.1
20260901072022 15 103 9.7 22.5 0.00 0.00 0.00 78 1013.0
20260901071023 15 124 8.0 17.7 0.00 0.00 0.00 78 1013.0
20260901070046 15 130 9.7 22.5 0.00 0.00 0.00 78 1013.0
20260901065034 15 134 9.7 17.7 0.00 0.00 0.00 78 1013.0
20260901064014 15 136 11.3 20.9 0.00 0.00 0.00 78 1013.0
20260901063017 15 141 8.0 17.7 0.00 0.00 0.00 78 1013.0
20260901062012 15 162 8.0 22.5 0.00 0.00 0.00 77 1013.0
20260901061011 15 146 9.7 17.7 0.00 0.00 0.00 77 1012.9
20260901060012 16 195 8.0 17.7 0.00 0.00 0.00 77 1012.8
20260901055048 16 145 9.7 17.7 0.00 0.00 0.00 76 1012.6
20260901054028 16 132 8.0 19.3 0.00 0.00 0.00 76 1012.7
20260901053052 16 125 8.0 14.5 0.00 0.00 0.00 75 1012.6
20260901052026 16 159 8.0 17.7 0.00 0.00 0.00 75 1012.7
20260901051024 16 158 6.4 16.1 0.00 0.00 0.00 75 1012.7
20260901050028 16 199 6.4 16.1 0.00 0.00 0.00 74 1012.7
20260901045024 17 154 8.0 19.3 0.00 0.00 0.00 74 1012.6
20260901044049 17 105 9.7 17.7 0.00 0.00 0.00 74 1012.5
20260901043028 17 151 11.3 17.7 0.00 0.00 0.00 73 1012.4
20260901042020 17 169 8.0 17.7 0.00 0.00 0.00 72 1012.4
20260901041022 17 186 8.0 19.3 0.00 0.00 0.00 72 1012.3
20260901040022 17 200 8.0 22.5 0.00 0.00 0.00 71 1012.3
20260901035012 17 182 8.0 16.1 0.00 0.00 0.00 71 1012.0
20260901034011 18 165 6.4 16.1 0.00 0.00 0.00 70 1011.8
20260901033016 18 218 6.4 16.1 0.00 0.00 0.00 69 1011.6
20260901032013 18 171 4.8 16.1 0.00 0.00 0.00 69 1011.5
20260901031012 18 239 12.9 19.3 0.00 0.00 0.00 68 1011.3
20260901030013 18 201 4.8 22.5 0.00 0.00 0.00 67 1011.1
20260901025011 19 159 8.0 20.9 0.00 0.00 0.00 66 1011.0
20260901024016 20 137 9.7 17.7 0.00 0.00 0.00 64 1011.1
20260901023018 20 191 8.0 19.3 0.00 0.00 0.00 63 1010.9
20260901022021 20 195 4.8 20.9 0.00 0.00 0.00 60 1010.9
20260901021038 21 216 8.0 17.7 0.00 0.00 0.00 59 1010.8
20260901020021 21 301 8.0 19.3 0.00 0.00 0.00 57 1010.7
20260901015023 22 191 8.0 24.1 0.00 0.00 0.00 55 1010.6
20260901014040 22 189 6.4 17.7 0.00 0.00 0.00 54 1010.3
20260901013017 23 166 6.4 17.7 0.00 0.00 0.00 53 1010.4
20260901012012 23 231 8.0 24.1 0.00 0.00 0.00 50 1010.4
20260901011012 24 203 9.7 19.3 0.00 0.00 0.00 49 1010.4
20260901010204 24 212 11.3 20.9 0.00 0.00 0.00 48 1010.5
20260901005026 24 197 9.7 22.5 0.00 0.00 0.00 48 1010.5
20260901004028 25 213 8.0 24.1 0.00 0.00 0.00 47 1010.7
20260901003010 25 181 4.8 19.3 0.00 0.00 0.00 47 1010.8
20260901002031 25 184 6.4 16.1 0.00 0.00 0.00 47 1010.5
20260901001028 25 210 6.4 16.1 0.00 0.00 0.00 48 1010.7
20260901000010 25 179 8.0 19.3 0.00 0.00 0.00 47 1010.8
20260831235012 25 252 11.3 19.3 0.00 0.00 0.00 47 1010.6
20260831234029 26 227 6.4 19.3 0.00 0.00 0.00 47 1010.7
20260831233030 25 298 8.0 19.3 0.00 0.00 0.00 48 1010.9
20260831232010 25 250 9.7 16.1 0.00 0.00 0.00 48 1011.0
20260831231025 26 178 6.4 17.7 0.00 0.00 0.00 48 1011.0
20260831230023 26 172 3.2 20.9 0.00 0.00 0.00 47 1011.1
20260831225024 25 245 6.4 16.1 0.00 0.00 0.00 48 1011.2
20260831224019 25 195 8.0 20.9 0.00 0.00 0.00 49 1011.3
20260831223020 25 245 8.0 17.7 0.00 0.00 0.00 48 1011.4
20260831222023 25 159 8.0 16.1 0.00 0.00 0.00 49 1011.6
20260831221020 25 231 9.7 16.1 0.00 0.00 0.00 48 1011.6
20260831220020 25 176 8.0 19.3 0.00 0.00 0.00 48 1011.9
20260831215022 25 241 8.0 19.3 0.00 0.00 0.00 48 1011.8